Regional Weather Roundup
Issued by NWS

Home | Current Version | Previous Version | Text Only | Print | Product List | Glossary Off
Versions: 1 2 3 4 5 6 7 8 9 10 11 12 13 14 15 16 17 18 19 20 21 22 23 24 25 26 27 28 29 30 31 32 33 34 35 36 37 38 39 40 41 42 43 44 45 46 47 48 49 50

162
ASUS43 KMKX 210721
RWRWI

WISCONSIN REGIONAL WEATHER ROUNDUP
NATIONAL WEATHER SERVICE MILWAUKEE/SULLIVAN WI
100 AM CST TUE FEB 21 2017

NOTE: "FAIR" INDICATES FEW OR NO CLOUDS BELOW 12,000 FEET WITH NO
SIGNIFICANT WEATHER AND/OR OBSTRUCTIONS TO VISIBILITY.

WIZ001-002-006>008-014>016-023>028-210800-
NORTHWEST WISCONSIN

CITY           SKY/WX    TMP DP  RH WIND       PRES   REMARKS
SUPERIOR ARPT  CLOUDY    40  37  91 W16       29.73R WCI  31
ASHLAND        CLOUDY    46  43  89 W13G23    29.68R
HAYWARD        CLOUDY    47  44  90 VRB6      29.72R
SIREN          CLOUDY    40  38  91 W10G17    29.79R WCI  34
CUMBERLAND     CLOUDY    41  37  87 W12G18    29.78R
RICE LAKE      CLOUDY    43  42  99 W16       29.79R
CHETEK         CLOUDY    44  43  97 W12G20    29.79R
LADYSMITH      CLOUDY    48  47  99 W16G22    29.75R
EAU CLAIRE     CLOUDY    45  43  93 W14G22    29.79R
MENOMONIE      CLOUDY    42  41  93 W8        29.82R
NEW RICHMOND   CLOUDY    40  39  97 W12       29.83R FOG     WCI  33
OSCEOLA        CLOUDY    39  39 100 W6        29.85  WCI  35
$$

WIZ003>005-009-010-017-018-210800-
NORTH CENTRAL WISCONSIN

CITY           SKY/WX    TMP DP  RH WIND       PRES   REMARKS
MANITOWISH WTR LGT RAIN  46  46 100 SW12      29.63S
ARBOR VITAE    CLOUDY    51  50  97 SW12G22   29.65S FOG
WOODRUFF       CLOUDY    51  50  97 SW12G22   29.65S FOG
RHINELANDER    LGT RAIN  50  50 100 SW12G20   29.67F FOG
EAGLE RIVER    LGT RAIN  46  46 100 S6        29.65F VSB 1
LAND O LAKES   DRIZZLE   47  47 100 SW6       29.66S
PHILLIPS       DRIZZLE   48  48 100 SW14G21   29.68R
TOMAHAWK       DRIZZLE   48  47  98 SW6       29.69S
MEDFORD        CLOUDY    47  47  98 SW9       29.72R
MERRILL        NOT AVBL
$$

WIZ029-030-035-036-043>047-210800-
CENTRAL WISCONSIN

CITY           SKY/WX    TMP DP  RH WIND       PRES   REMARKS
WAUSAU         CLOUDY    51  50  96 SW13      29.72R FOG
MOSINEE        CLOUDY    50  50 100 SW9       29.75R FOG
MARSHFIELD     CLOUDY    51  49  92 W15G23    29.74R
STEVENS POINT  CLOUDY    51  51 100 S9        29.75F FOG
WAUPACA        CLOUDY    55  54  97 S8        29.78S FOG
WAUTOMA        CLOUDY    54  54 100 S8        29.79S FOG
WISC RAPIDS    CLOUDY    54  54 100 SW10      29.76F FOG
CAMP DOUGLAS   CLOUDY    55  52  88 SW15      29.76F
$$

WIZ011>013-019>022-031-037>040-048>050-210800-
NORTHEAST WISCONSIN

CITY           SKY/WX    TMP DP  RH WIND       PRES   REMARKS
ANTIGO         FOG       43  43 100 S13       29.71F VSB<1/4
SHAWANO        CLOUDY    52  51  95 S5        29.76F FOG
OCONTO         CLOUDY    46  45  94 S6        29.76F
STURGEON BAY   LGT RAIN  45  42  89 S15G22    29.80S
GREEN BAY      LGT RAIN  50  50 100 S9        29.78F FOG
MANITOWOC      LGT RAIN  43  39  86 MISG      29.83F
APPLETON       DRIZZLE   50  50 100 S10       29.78F
CLINTONVILLE   CLOUDY    52  50  93 SW9       29.76F FOG
OSHKOSH        LGT RAIN  52  50  93 S15       29.79F
$$

WIZ032>034-041-042-053>061-210800-
SOUTHWEST WISCONSIN

CITY           SKY/WX    TMP DP  RH WIND       PRES   REMARKS
LA CROSSE      CLOUDY    51  46  83 W10       29.83R
SPARTA         CLOUDY    50  47  90 W9        29.83R
VIROQUA        CLOUDY    48  47  95 W9        29.84R
BOSCOBEL       CLOUDY    57  55  93 SW13      29.83F
PRAIRIE DU CHI CLOUDY    48  47  97 NW7       29.87R
PLATTEVILLE    CLOUDY    53  53 100 S9        29.86F VSB 1/4
$$

WIZ056-057-062-063-064-067-068-210800-
SOUTH CENTRAL WISCONSIN

CITY           SKY/WX    TMP DP  RH WIND       PRES   REMARKS
REEDSBURG      CLOUDY    55  55 100 SW12      29.80F
BARABOO/DELLS  CLOUDY    55  52  90 SW9       29.80F
LONE ROCK      CLOUDY    57  54  89 SW7       29.83S
MINERAL POINT  LGT RAIN  55  55 100 SW9       29.85S
MADISON        CLOUDY    54  54 100 SW3       29.84S FOG
MIDDLETON        N/A     58  58 100 SW12      29.85R
WATERTOWN      LGT RAIN  53  53 100 S8        29.85F
MONROE         LGT RAIN  54  54 100 SW12      29.87R VSB 3/4
JANESVILLE     LGT RAIN  55  55 100 S7        29.88S
$$

WIZ051-052-058>065-066-070>072-210800-
SOUTHEAST WISCONSIN

CITY           SKY/WX    TMP DP  RH WIND       PRES   REMARKS
MILWAUKEE      LGT RAIN  58  46  64 SW8       29.87F
WAUKESHA       RAIN      52  50  93 SW8       29.88S
MILWAUKEE/TIMM HVY RAIN  55  46  71 SW10      29.87F
RACINE         CLOUDY    47  39  74 S5        29.89F
KENOSHA        CLOUDY    58  46  64 SW13      29.88F
FOND DU LAC    LGT RAIN  53  50  89 S13       29.81F FOG
SHEBOYGAN      LGT RAIN  44  40  85 S8        29.84F
WEST BEND      DRIZZLE   52  52 100 S9        29.85F
JUNEAU         LGT RAIN  53  52  97 SE12      29.84F
$$

LSZ147-162-210800-
LAKE SUPERIOR

STATION/POSITION TIME  TEMP    WIND        PRES    WAVE
                       AIR SEA DIR/SP/G            HT/PER
                 (UTC) (F)     (DEG/KT/KT) (MB)    (FT/S)
DEVILS ISLAND    0700   38     240/ 26/ 29 1003.2R
PORT WING        0640   40     250/ 11/ 17 1005.4R
SAXON HARBOR     0630   52     210/  7/ 13 1002.4R
$$

LMZ867-665-643>646-210800-
LAKE MICHIGAN

STATION/POSITION TIME  TEMP    WIND        PRES    WAVE
                       AIR SEA DIR/SP/G            HT/PER
                 (UTC) (F)     (DEG/KT/KT) (MB)    (FT/S)
CHAMBERS ISLAND  0640   44     150/  9/ 19 1008.1F
NORTHPORT PIER   0700   43     170/  8     1008.5
SISTER BAY       0620   45     170/ 30/ 40   N/A
KEWAUNEE LAKESHO 0654   40     190/ 18/ 20 1009.4F
SHEBOYGAN LAKESH 0700   41     170/ 19/ 20 1010.9F
PORT WASHINGTON  0630   42     180/  2/  5 1012.5F
MILWAUKEE LAKESH 0700   41     200/  2/  3   N/A
KENOSHA   LAKESH 0700   40     180/ 12/ 14 1011.9
$$

TC  - TEMPERATURE IN CELSIUS
VSB - VISIBILITY IN STATUTE MILES
WCI - WIND CHILL INDEX
HX  - HEAT INDEX





USA.gov is the U.S. government's official web portal to all federal, state and local government web resources and services.